Change the Weather History Date:

Friday, February 15, 2013

  Actual Average Record
Temperature  
Mean Temperature 12 °F -  
Max Temperature 21 °F 30 °F 51 °F (1954)
Min Temperature 3 °F 10 °F -23 °F (1963)
Degree Days  
Heating Degree Days 53    
Moisture  
Dew Point 4 °F    
Average Humidity 64    
Maximum Humidity 92    
Minimum Humidity 49    
Precipitation  
Precipitation 0.00 in - - ()
Sea Level Pressure  
Sea Level Pressure 30.19 in    
Wind  
Wind Speed 5 mph (WNW)    
Max Wind Speed 16 mph    
Max Gust Speed 21 mph    
Visibility 10 miles    
Events      
Averages and records for this station are not official NWS values.
T = Trace of Precipitation, MM = Missing Value Source: NWS Daily Summary

Daily Weather History Graph

Daily Weather History Graph

Search for Another Location

Airport or City:

Trip Planner

Search our weather history database for the weather conditions in past years. The results will help you decide how hot, cold, wet, or windy it might be!

Date:

Astronomy

Feb. 15, 2013 Rise Set
Actual Time 7:01 AM CST 5:33 PM CST
Civil Twilight 6:32 AM CST 6:02 PM CST
Nautical Twilight 5:58 AM CST 6:36 PM CST
Astronomical Twilight 5:24 AM CST 7:09 PM CST
Moon 9:24 AM CST (2/15) 11:48 PM CST (2/15)
Length of Visible Light 11h 30m
Length of Day
10h 31m
Waxing Crescent, 30% of the Moon is Illuminated
Feb 15
Waxing Crescent
Feb 17
First Quarter
Feb 25
Full
Mar 4
Last Quarter
Mar 11
New

Hourly Weather History & Observations

Time (CST) Temp. Windchill Dew Point Humidity Pressure Visibility Wind Dir Wind Speed Gust Speed Precip Events Conditions
12:15 AM 19.4 °F 14.3 °F 8.6 °F 63% 30.10 in 10.0 mi NW 3.5 mph - N/A   Clear
12:35 AM 19.4 °F 14.3 °F 8.6 °F 63% 30.11 in 10.0 mi WNW 3.5 mph - N/A   Clear
12:55 AM 17.6 °F 10.7 °F 8.6 °F 68% 30.11 in 10.0 mi WNW 4.6 mph - N/A   Clear
1:15 AM 17.6 °F 10.7 °F 6.8 °F 63% 30.11 in 10.0 mi WNW 4.6 mph - N/A   Clear
1:35 AM 17.6 °F 9.3 °F 5.0 °F 58% 30.12 in 10.0 mi WNW 5.8 mph - N/A   Clear
1:55 AM 15.8 °F 7.2 °F 5.0 °F 62% 30.12 in 10.0 mi NW 5.8 mph - N/A   Clear
2:15 AM 15.8 °F 10.2 °F 5.0 °F 62% 30.13 in 10.0 mi WNW 3.5 mph - N/A   Clear
2:35 AM 14.0 °F 6.5 °F 5.0 °F 67% 30.13 in 10.0 mi West 4.6 mph - N/A   Clear
2:55 AM 12.2 °F 6.1 °F 5.0 °F 73% 30.14 in 10.0 mi West 3.5 mph - N/A   Clear
3:15 AM 12.2 °F 6.1 °F 5.0 °F 73% 30.14 in 10.0 mi West 3.5 mph - N/A   Clear
3:35 AM 10.4 °F - 5.0 °F 79% 30.14 in 10.0 mi Calm Calm - N/A   Clear
3:55 AM 8.6 °F - 3.2 °F 79% 30.15 in 10.0 mi Calm Calm - N/A   Clear
4:15 AM 5.0 °F - 3.2 °F 92% 30.15 in 10.0 mi Calm Calm - N/A   Clear
4:35 AM 5.0 °F - 3.2 °F 92% 30.15 in 10.0 mi Calm Calm - N/A   Clear
4:55 AM 5.0 °F - 3.2 °F 92% 30.15 in 10.0 mi Calm Calm - N/A   Clear
5:15 AM 5.0 °F - 3.2 °F 92% 30.16 in 10.0 mi Calm Calm - N/A   Clear
5:35 AM 3.2 °F - 1.4 °F 92% 30.16 in 10.0 mi Calm Calm - N/A   Clear
5:55 AM 5.0 °F - 1.4 °F 85% 30.17 in 10.0 mi Calm Calm - N/A   Clear
6:15 AM 3.2 °F - -0.4 °F 85% 30.17 in 10.0 mi Calm Calm - N/A   Clear
6:35 AM 3.2 °F - -0.4 °F 85% 30.18 in 10.0 mi Calm Calm - N/A   Clear
6:55 AM 3.2 °F - -0.4 °F 85% 30.18 in 10.0 mi Calm Calm - N/A   Clear
7:15 AM 3.2 °F - -0.4 °F 85% 30.19 in 10.0 mi Calm Calm - N/A   Clear
7:55 AM 5.0 °F -2.1 °F 1.4 °F 85% 30.19 in 10.0 mi East 3.5 mph - N/A   Clear
8:15 AM 8.6 °F - 3.2 °F 79% 30.20 in 10.0 mi Calm Calm - N/A   Clear
8:35 AM 14.0 °F 2.0 °F 5.0 °F 67% 30.20 in 10.0 mi WNW 9.2 mph - N/A   Scattered Clouds
8:55 AM 17.6 °F 6.4 °F 5.0 °F 58% 30.20 in 10.0 mi WNW 9.2 mph - N/A   Scattered Clouds
9:15 AM 17.6 °F 8.2 °F 5.0 °F 58% 30.20 in 10.0 mi WNW 6.9 mph - N/A   Scattered Clouds
9:35 AM 17.6 °F 4.3 °F 5.0 °F 58% 30.20 in 10.0 mi NW 12.7 mph 17.3 mph N/A   Scattered Clouds
9:55 AM 19.4 °F 7.9 °F 5.0 °F 54% 30.21 in 10.0 mi WNW 10.4 mph - N/A   Mostly Cloudy
10:15 AM 17.6 °F 6.4 °F 5.0 °F 58% 30.21 in 10.0 mi WNW 9.2 mph - N/A   Scattered Clouds
10:35 AM 19.4 °F 9.5 °F 5.0 °F 54% 30.21 in 10.0 mi WNW 8.1 mph - N/A   Clear
10:55 AM 19.4 °F 9.5 °F 5.0 °F 54% 30.21 in 10.0 mi West 8.1 mph - N/A   Clear
11:15 AM 21.2 °F 10.9 °F 6.8 °F 54% 30.21 in 10.0 mi West 9.2 mph - N/A   Clear
11:55 AM 21.2 °F 10.9 °F 5.0 °F 50% 30.20 in 10.0 mi WNW 9.2 mph - N/A   Clear
12:15 PM 21.2 °F 11.7 °F 5.0 °F 50% 30.20 in 10.0 mi WNW 8.1 mph - N/A   Clear
12:35 PM 21.2 °F 9.5 °F 5.0 °F 50% 30.19 in 10.0 mi WNW 11.5 mph - N/A   Clear
12:55 PM 21.2 °F 8.9 °F 5.0 °F 50% 30.19 in 10.0 mi NW 12.7 mph 16.1 mph N/A   Clear
1:15 PM 21.2 °F 10.1 °F 5.0 °F 50% 30.19 in 10.0 mi West 10.4 mph - N/A   Clear
1:35 PM 21.2 °F 9.5 °F 6.8 °F 54% 30.18 in 10.0 mi West 11.5 mph - N/A   Clear
1:55 PM 21.2 °F 9.5 °F 5.0 °F 50% 30.18 in 10.0 mi WNW 11.5 mph - N/A   Clear
2:15 PM 21.2 °F 9.5 °F 6.8 °F 54% 30.19 in 10.0 mi WNW 11.5 mph 18.4 mph N/A   Clear
2:35 PM 21.2 °F 9.5 °F 5.0 °F 50% 30.19 in 10.0 mi WNW 11.5 mph 17.3 mph N/A   Clear
2:55 PM 21.2 °F 10.1 °F 5.0 °F 50% 30.19 in 10.0 mi WNW 10.4 mph 16.1 mph N/A   Clear
3:15 PM 21.2 °F 10.1 °F 5.0 °F 50% 30.19 in 10.0 mi WNW 10.4 mph 17.3 mph N/A   Clear
3:35 PM 21.2 °F 9.5 °F 5.0 °F 50% 30.20 in 10.0 mi NW 11.5 mph 17.3 mph N/A   Clear
3:55 PM 21.2 °F 7.3 °F 5.0 °F 50% 30.20 in 10.0 mi WNW 16.1 mph 20.7 mph N/A   Clear
4:15 PM 19.4 °F 5.5 °F 5.0 °F 54% 30.21 in 10.0 mi WNW 15.0 mph - N/A   Clear
4:35 PM 19.4 °F 6.6 °F 5.0 °F 54% 30.21 in 10.0 mi NW 12.7 mph - N/A   Clear
4:55 PM 19.4 °F 8.6 °F 3.2 °F 49% 30.22 in 10.0 mi NW 9.2 mph - N/A   Clear
5:15 PM 17.6 °F 5.7 °F 3.2 °F 53% 30.22 in 10.0 mi NW 10.4 mph - N/A   Clear
5:35 PM 17.6 °F 5.0 °F 3.2 °F 53% 30.23 in 10.0 mi NW 11.5 mph - N/A   Clear
5:55 PM 15.8 °F 4.2 °F 3.2 °F 58% 30.23 in 10.0 mi NW 9.2 mph - N/A   Clear
6:15 PM 15.8 °F 4.2 °F 1.4 °F 53% 30.23 in 10.0 mi NW 9.2 mph - N/A   Clear
6:35 PM 14.0 °F 1.2 °F 1.4 °F 57% 30.24 in 10.0 mi NW 10.4 mph - N/A   Clear
6:55 PM 14.0 °F 1.2 °F 1.4 °F 57% 30.24 in 10.0 mi WNW 10.4 mph - N/A   Clear
7:15 PM 14.0 °F 2.9 °F 1.4 °F 57% 30.24 in 10.0 mi NW 8.1 mph - N/A   Clear
7:35 PM 14.0 °F 3.9 °F 1.4 °F 57% 30.24 in 10.0 mi WNW 6.9 mph - N/A   Clear
7:55 PM 12.2 °F 0.7 °F 1.4 °F 62% 30.24 in 10.0 mi WNW 8.1 mph - N/A   Clear
8:15 PM 12.2 °F 2.9 °F 1.4 °F 62% 30.24 in 10.0 mi WNW 5.8 mph - N/A   Clear
8:35 PM 12.2 °F 4.3 °F 1.4 °F 62% 30.24 in 10.0 mi West 4.6 mph - N/A   Clear
8:55 PM 10.4 °F 4.0 °F 1.4 °F 67% 30.24 in 10.0 mi West 3.5 mph - N/A   Clear
9:15 PM 10.4 °F - 1.4 °F 67% 30.24 in 10.0 mi Calm Calm - N/A   Clear
9:35 PM 8.6 °F 2.0 °F -0.4 °F 67% 30.24 in 10.0 mi WNW 3.5 mph - N/A   Clear
9:55 PM 6.8 °F -0.1 °F -0.4 °F 72% 30.24 in 10.0 mi West 3.5 mph - N/A   Clear
10:15 PM 10.4 °F 0.8 °F 1.4 °F 67% 30.23 in 10.0 mi West 5.8 mph - N/A   Mostly Cloudy
10:35 PM 10.4 °F 4.0 °F 1.4 °F 67% 30.23 in 10.0 mi WSW 3.5 mph - N/A   Overcast
10:55 PM 10.4 °F - 1.4 °F 67% 30.22 in 10.0 mi Calm Calm - N/A   Overcast
11:15 PM 10.4 °F - 1.4 °F 67% 30.22 in 10.0 mi Calm Calm - N/A   Overcast
11:35 PM 10.4 °F - 1.4 °F 67% 30.22 in 10.0 mi Calm Calm - N/A   Overcast
11:55 PM 12.2 °F 6.1 °F 1.4 °F 62% 30.22 in 10.0 mi West 3.5 mph - N/A   Overcast